Time,TemperatureF,DewpointF,PressureIn,WindDirection,WindDirectionDegrees,WindSpeedMPH,WindSpeedGustMPH,Humidity,HourlyPrecipIn,Conditions,Clouds,dailyrainin,SoftwareType,DateUTC
2013-03-02 00:01:00,53.0,48.0,30.28,SE,142,1.0,6.0,82,-99.99,,,-99.99,,2013-03-02 05:01:00,
2013-03-02 00:12:00,53.0,48.0,30.28,SE,142,1.0,6.0,82,-99.99,,,-99.99,,2013-03-02 05:12:00,
2013-03-02 00:22:00,53.0,48.0,30.27,SSE,160,1.0,6.0,83,-99.99,,,-99.99,,2013-03-02 05:22:00,
2013-03-02 00:31:00,53.0,48.0,30.27,South,171,0.0,3.0,83,-99.99,,,-99.99,,2013-03-02 05:31:00,
2013-03-02 00:41:00,53.0,48.0,30.27,South,171,0.0,3.0,83,-99.99,,,-99.99,,2013-03-02 05:41:00,
2013-03-02 00:52:00,52.0,47.0,30.27,SSE,161,2.0,5.0,84,-99.99,,,-99.99,,2013-03-02 05:52:00,
2013-03-02 01:01:00,52.0,48.0,30.27,SSE,157,1.0,6.0,85,-99.99,,,-99.99,,2013-03-02 06:01:00,
2013-03-02 01:11:00,52.0,48.0,30.27,SSE,157,1.0,6.0,85,-99.99,,,-99.99,,2013-03-02 06:11:00,
2013-03-02 01:21:00,52.0,48.0,30.27,SSE,153,2.0,4.0,85,-99.99,,,-99.99,,2013-03-02 06:21:00,
2013-03-02 01:31:00,52.0,47.0,30.27,SSE,165,3.0,6.0,84,-99.99,,,-99.99,,2013-03-02 06:31:00,
2013-03-02 01:41:00,52.0,47.0,30.27,SSE,165,3.0,6.0,84,-99.99,,,-99.99,,2013-03-02 06:41:00,
2013-03-02 01:51:00,52.0,47.0,30.27,South,169,2.0,6.0,84,-99.99,,,-99.99,,2013-03-02 06:51:00,
2013-03-02 02:01:00,52.0,47.0,30.27,SSE,159,4.0,9.0,84,-99.99,,,-99.99,,2013-03-02 07:01:00,
2013-03-02 02:11:00,52.0,47.0,30.27,SSE,160,3.0,12.0,84,-99.99,,,-99.99,,2013-03-02 07:11:00,
2013-03-02 02:21:00,52.0,47.0,30.27,SSE,160,3.0,12.0,84,-99.99,,,-99.99,,2013-03-02 07:21:00,
2013-03-02 02:32:00,52.0,47.0,30.26,SSE,162,3.0,10.0,84,-99.99,,,-99.99,,2013-03-02 07:32:00,
2013-03-02 02:41:00,52.0,47.0,30.26,SSE,162,3.0,10.0,84,-99.99,,,-99.99,,2013-03-02 07:41:00,
2013-03-02 02:52:00,53.0,48.0,30.25,SSE,156,7.0,12.0,84,-99.99,,,-99.99,,2013-03-02 07:52:00,
2013-03-02 03:01:00,52.0,48.0,30.25,SSE,157,4.0,13.0,85,-99.99,,,-99.99,,2013-03-02 08:01:00,
2013-03-02 03:11:00,52.0,48.0,30.25,SSE,157,4.0,13.0,85,-99.99,,,-99.99,,2013-03-02 08:11:00,
2013-03-02 03:21:00,52.0,48.0,30.25,SSE,152,3.0,9.0,85,-99.99,,,-99.99,,2013-03-02 08:21:00,
2013-03-02 03:31:00,52.0,48.0,30.25,SSE,164,3.0,9.0,85,-99.99,,,-99.99,,2013-03-02 08:31:00,
2013-03-02 03:42:00,52.0,48.0,30.25,SSE,164,3.0,9.0,85,-99.99,,,-99.99,,2013-03-02 08:42:00,
2013-03-02 03:52:00,52.0,48.0,30.25,SSE,159,5.0,9.0,86,-99.99,,,-99.99,,2013-03-02 08:52:00,
2013-03-02 04:01:00,52.0,48.0,30.25,SSE,153,2.0,7.0,86,-99.99,,,-99.99,,2013-03-02 09:01:00,
2013-03-02 04:11:00,52.0,48.0,30.25,SSE,159,2.0,6.0,86,-99.99,,,-99.99,,2013-03-02 09:11:00,
2013-03-02 04:21:00,52.0,48.0,30.25,SSE,159,2.0,6.0,86,-99.99,,,-99.99,,2013-03-02 09:21:00,
2013-03-02 04:31:00,52.0,48.0,30.24,SSE,158,5.0,8.0,85,-99.99,,,-99.99,,2013-03-02 09:31:00,
2013-03-02 04:42:00,52.0,48.0,30.24,SSE,158,5.0,8.0,85,-99.99,,,-99.99,,2013-03-02 09:42:00,
2013-03-02 04:52:00,52.0,48.0,30.24,SE,145,3.0,7.0,85,-99.99,,,-99.99,,2013-03-02 09:52:00,
2013-03-02 05:01:00,52.0,48.0,30.25,SSE,154,3.0,12.0,85,-99.99,,,-99.99,,2013-03-02 10:01:00,
2013-03-02 05:21:00,52.0,47.0,30.24,SSE,153,5.0,11.0,83,-99.99,,,-99.99,,2013-03-02 10:21:00,
2013-03-02 05:31:00,52.0,47.0,30.24,SSE,166,3.0,11.0,83,-99.99,,,-99.99,,2013-03-02 10:31:00,
2013-03-02 05:41:00,52.0,47.0,30.24,SSE,166,3.0,11.0,83,-99.99,,,-99.99,,2013-03-02 10:41:00,
2013-03-02 05:52:00,52.0,47.0,30.23,SSE,164,6.0,11.0,82,-99.99,,,-99.99,,2013-03-02 10:52:00,
2013-03-02 06:01:00,52.0,47.0,30.22,SSE,160,3.0,9.0,82,-99.99,,,-99.99,,2013-03-02 11:01:00,
2013-03-02 06:11:00,52.0,47.0,30.22,SSE,160,3.0,9.0,82,-99.99,,,-99.99,,2013-03-02 11:11:00,
2013-03-02 06:21:00,52.0,47.0,30.22,SSE,157,5.0,11.0,82,-99.99,,,-99.99,,2013-03-02 11:21:00,
2013-03-02 06:31:00,52.0,47.0,30.21,SSE,153,2.0,12.0,82,-99.99,,,-99.99,,2013-03-02 11:31:00,
2013-03-02 06:41:00,52.0,47.0,30.21,SSE,153,2.0,12.0,82,-99.99,,,-99.99,,2013-03-02 11:41:00,
2013-03-02 06:52:00,52.0,47.0,30.20,SSE,161,8.0,13.0,82,-99.99,,,-99.99,,2013-03-02 11:52:00,
2013-03-02 07:02:00,51.0,46.0,30.19,SSE,159,4.0,11.0,82,-99.99,,,-99.99,,2013-03-02 12:02:00,
2013-03-02 07:11:00,51.0,46.0,30.19,SSE,159,4.0,11.0,82,-99.99,,,-99.99,,2013-03-02 12:11:00,
2013-03-02 07:21:00,51.0,46.0,30.18,SSE,161,5.0,12.0,83,-99.99,,,-99.99,,2013-03-02 12:21:00,
2013-03-02 07:32:00,51.0,46.0,30.18,SSE,165,5.0,10.0,83,-99.99,,,-99.99,,2013-03-02 12:32:00,
2013-03-02 07:42:00,51.0,46.0,30.18,SSE,165,5.0,10.0,83,-99.99,,,-99.99,,2013-03-02 12:42:00,
2013-03-02 07:53:00,51.0,46.0,30.17,SSE,158,6.0,12.0,83,-99.99,,,-99.99,,2013-03-02 12:53:00,
2013-03-02 08:01:00,50.0,45.0,30.17,SSE,161,6.0,10.0,83,-99.99,,,-99.99,,2013-03-02 13:01:00,
2013-03-02 08:11:00,50.0,45.0,30.17,SSE,161,6.0,10.0,83,-99.99,,,-99.99,,2013-03-02 13:11:00,
2013-03-02 08:21:00,50.0,45.0,30.17,SSE,155,3.0,10.0,83,-99.99,,,-99.99,,2013-03-02 13:21:00,
2013-03-02 08:31:00,50.0,45.0,30.17,SSE,165,5.0,10.0,83,-99.99,,,-99.99,,2013-03-02 13:31:00,
2013-03-02 08:41:00,50.0,45.0,30.17,SSE,165,5.0,10.0,83,-99.99,,,-99.99,,2013-03-02 13:41:00,
2013-03-02 08:52:00,50.0,44.0,30.17,SSE,160,1.0,7.0,81,-99.99,,,-99.99,,2013-03-02 13:52:00,
2013-03-02 09:01:00,50.0,45.0,30.17,SSE,167,2.0,4.0,82,-99.99,,,-99.99,,2013-03-02 14:01:00,
2013-03-02 09:11:00,50.0,45.0,30.17,SSE,167,2.0,4.0,82,-99.99,,,-99.99,,2013-03-02 14:11:00,
2013-03-02 09:21:00,50.0,45.0,30.16,South,169,3.0,7.0,82,-99.99,,,-99.99,,2013-03-02 14:21:00,
2013-03-02 09:31:00,50.0,44.0,30.16,SE,140,2.0,10.0,81,-99.99,,,-99.99,,2013-03-02 14:31:00,
2013-03-02 09:41:00,50.0,44.0,30.16,SE,140,2.0,10.0,81,-99.99,,,-99.99,,2013-03-02 14:41:00,
2013-03-02 09:52:00,50.0,44.0,30.16,SE,143,3.0,9.0,80,-99.99,,,-99.99,,2013-03-02 14:52:00,
2013-03-02 10:01:00,50.0,44.0,30.16,SSE,158,6.0,9.0,80,-99.99,,,-99.99,,2013-03-02 15:01:00,
2013-03-02 10:11:00,50.0,44.0,30.16,SSE,158,6.0,9.0,80,-99.99,,,-99.99,,2013-03-02 15:11:00,
2013-03-02 10:21:00,50.0,44.0,30.15,SSE,155,4.0,11.0,80,-99.99,,,-99.99,,2013-03-02 15:21:00,
2013-03-02 10:31:00,50.0,44.0,30.14,SE,138,3.0,10.0,79,-99.99,,,-99.99,,2013-03-02 15:31:00,
2013-03-02 10:41:00,50.0,44.0,30.14,SE,138,3.0,10.0,79,-99.99,,,-99.99,,2013-03-02 15:41:00,
2013-03-02 10:51:00,50.0,44.0,30.14,SSE,159,4.0,6.0,80,-99.99,,,-99.99,,2013-03-02 15:51:00,
2013-03-02 11:01:00,50.0,44.0,30.14,SE,125,3.0,9.0,79,-99.99,,,-99.99,,2013-03-02 16:01:00,
2013-03-02 11:11:00,50.0,44.0,30.14,SE,125,3.0,9.0,79,-99.99,,,-99.99,,2013-03-02 16:11:00,
2013-03-02 11:21:00,50.0,43.0,30.12,SSE,156,7.0,12.0,78,-99.99,,,-99.99,,2013-03-02 16:21:00,
2013-03-02 11:31:00,50.0,43.0,30.12,SSE,158,5.0,12.0,77,-99.99,,,-99.99,,2013-03-02 16:31:00,
2013-03-02 11:41:00,50.0,43.0,30.12,SSE,158,5.0,12.0,77,-99.99,,,-99.99,,2013-03-02 16:41:00,
2013-03-02 11:52:00,51.0,44.0,30.12,SSE,161,2.0,9.0,78,-99.99,,,-99.99,,2013-03-02 16:52:00,
2013-03-02 12:01:00,52.0,45.0,30.12,SSE,162,3.0,9.0,76,-99.99,,,-99.99,,2013-03-02 17:01:00,
2013-03-02 12:11:00,52.0,45.0,30.12,SSE,162,3.0,9.0,76,-99.99,,,-99.99,,2013-03-02 17:11:00,
2013-03-02 12:21:00,52.0,44.0,30.12,SSE,152,8.0,14.0,75,-99.99,,,-99.99,,2013-03-02 17:21:00,
2013-03-02 12:31:00,53.0,45.0,30.12,SSE,164,6.0,17.0,75,-99.99,,,-99.99,,2013-03-02 17:31:00,
2013-03-02 12:41:00,53.0,45.0,30.12,SSE,164,6.0,17.0,75,-99.99,,,-99.99,,2013-03-02 17:41:00,
2013-03-02 12:52:00,54.0,46.0,30.12,South,169,4.0,18.0,74,-99.99,,,-99.99,,2013-03-02 17:52:00,
2013-03-02 13:01:00,54.0,46.0,30.11,SSE,149,7.0,15.0,73,-99.99,,,-99.99,,2013-03-02 18:01:00,
2013-03-02 13:11:00,54.0,46.0,30.11,SSE,149,7.0,15.0,73,-99.99,,,-99.99,,2013-03-02 18:11:00,
2013-03-02 13:21:00,54.0,46.0,30.11,South,180,3.0,14.0,73,-99.99,,,-99.99,,2013-03-02 18:21:00,
2013-03-02 13:31:00,55.0,46.0,30.11,SSE,155,9.0,15.0,72,-99.99,,,-99.99,,2013-03-02 18:31:00,
2013-03-02 13:41:00,55.0,46.0,30.11,SSE,155,9.0,15.0,72,-99.99,,,-99.99,,2013-03-02 18:41:00,
2013-03-02 13:51:00,55.0,46.0,30.11,SSE,158,5.0,15.0,72,-99.99,,,-99.99,,2013-03-02 18:51:00,
2013-03-02 14:01:00,55.0,46.0,30.11,South,182,1.0,12.0,72,-99.99,,,-99.99,,2013-03-02 19:01:00,
2013-03-02 14:11:00,55.0,46.0,30.11,South,182,1.0,12.0,72,-99.99,,,-99.99,,2013-03-02 19:11:00,
2013-03-02 14:21:00,56.0,47.0,30.10,South,180,4.0,13.0,72,-99.99,,,-99.99,,2013-03-02 19:21:00,
2013-03-02 14:31:00,55.0,46.0,30.10,South,187,6.0,17.0,72,-99.99,,,-99.99,,2013-03-02 19:31:00,
2013-03-02 14:42:00,55.0,46.0,30.10,South,187,6.0,17.0,72,-99.99,,,-99.99,,2013-03-02 19:42:00,
2013-03-02 14:52:00,56.0,47.0,30.09,SSE,158,2.0,14.0,71,-99.99,,,-99.99,,2013-03-02 19:52:00,
2013-03-02 15:01:00,56.0,46.0,30.09,SSE,152,4.0,18.0,70,-99.99,,,-99.99,,2013-03-02 20:01:00,
2013-03-02 15:11:00,56.0,46.0,30.09,SSE,152,4.0,18.0,70,-99.99,,,-99.99,,2013-03-02 20:11:00,
2013-03-02 15:21:00,56.0,47.0,30.08,South,171,3.0,14.0,71,-99.99,,,-99.99,,2013-03-02 20:21:00,
2013-03-02 15:31:00,56.0,46.0,30.08,South,172,7.0,19.0,70,-99.99,,,-99.99,,2013-03-02 20:31:00,
2013-03-02 15:41:00,56.0,46.0,30.08,South,172,7.0,19.0,70,-99.99,,,-99.99,,2013-03-02 20:41:00,
2013-03-02 15:52:00,55.0,45.0,30.08,SSE,168,5.0,16.0,70,-99.99,,,-99.99,,2013-03-02 20:52:00,
2013-03-02 16:02:00,56.0,46.0,30.08,South,175,3.0,14.0,69,-99.99,,,-99.99,,2013-03-02 21:02:00,
2013-03-02 16:11:00,56.0,46.0,30.08,South,175,3.0,14.0,69,-99.99,,,-99.99,,2013-03-02 21:11:00,
2013-03-02 16:21:00,56.0,46.0,30.07,SSW,200,5.0,16.0,68,-99.99,,,-99.99,,2013-03-02 21:21:00,
2013-03-02 16:31:00,56.0,46.0,30.06,SSW,207,4.0,14.0,70,-99.99,,,-99.99,,2013-03-02 21:31:00,
2013-03-02 16:41:00,56.0,46.0,30.06,SSW,207,4.0,14.0,70,-99.99,,,-99.99,,2013-03-02 21:41:00,
2013-03-02 16:52:00,55.0,45.0,30.06,SSE,160,5.0,15.0,70,-99.99,,,-99.99,,2013-03-02 21:52:00,
2013-03-02 17:01:00,54.0,47.0,30.06,SSE,164,2.0,17.0,77,-99.99,,,-99.99,,2013-03-02 22:01:00,
2013-03-02 17:11:00,54.0,47.0,30.06,SSE,164,2.0,17.0,77,-99.99,,,-99.99,,2013-03-02 22:11:00,
2013-03-02 17:21:00,54.0,47.0,30.05,South,183,7.0,17.0,77,-99.99,,,-99.99,,2013-03-02 22:21:00,
2013-03-02 17:31:00,54.0,48.0,30.05,South,181,2.0,15.0,79,-99.99,,,-99.99,,2013-03-02 22:31:00,
2013-03-02 17:41:00,54.0,48.0,30.05,South,181,2.0,15.0,79,-99.99,,,-99.99,,2013-03-02 22:41:00,
2013-03-02 17:52:00,54.0,47.0,30.05,South,181,1.0,8.0,76,-99.99,,,-99.99,,2013-03-02 22:52:00,
2013-03-02 18:01:00,52.0,48.0,30.05,WNW,288,1.0,10.0,85,-99.99,,,-99.99,,2013-03-02 23:01:00,
2013-03-02 18:11:00,52.0,48.0,30.05,SSE,166,1.0,10.0,87,-99.99,,,-99.99,,2013-03-02 23:11:00,
2013-03-02 18:21:00,52.0,48.0,30.05,SSE,166,1.0,10.0,87,-99.99,,,-99.99,,2013-03-02 23:21:00,
2013-03-02 18:31:00,52.0,47.0,30.05,SSW,210,2.0,10.0,84,-99.99,,,-99.99,,2013-03-02 23:31:00,
2013-03-02 18:41:00,52.0,47.0,30.05,SSW,210,2.0,10.0,84,-99.99,,,-99.99,,2013-03-02 23:41:00,
2013-03-02 18:52:00,52.0,47.0,30.05,South,174,3.0,11.0,84,-99.99,,,-99.99,,2013-03-02 23:52:00,
2013-03-02 19:02:00,53.0,48.0,30.05,SW,216,2.0,10.0,83,-99.99,,,-99.99,,2013-03-03 00:02:00,
2013-03-02 19:11:00,53.0,48.0,30.05,SW,216,2.0,10.0,83,-99.99,,,-99.99,,2013-03-03 00:11:00,
2013-03-02 19:22:00,51.0,43.0,30.05,West,270,2.0,11.0,74,-99.99,,,-99.99,,2013-03-03 00:22:00,
2013-03-02 19:31:00,48.0,41.0,30.06,NW,326,6.0,13.0,77,-99.99,,,-99.99,,2013-03-03 00:31:00,
2013-03-02 19:42:00,48.0,41.0,30.06,NW,326,6.0,13.0,77,-99.99,,,-99.99,,2013-03-03 00:42:00,
2013-03-02 19:52:00,45.0,40.0,30.06,North,355,3.0,12.0,83,-99.99,,,-99.99,,2013-03-03 00:52:00,
2013-03-02 20:01:00,43.0,40.0,30.06,NNE,14,3.0,11.0,88,-99.99,,,-99.99,,2013-03-03 01:01:00,
2013-03-02 20:11:00,43.0,40.0,30.06,NNE,14,3.0,11.0,88,-99.99,,,-99.99,,2013-03-03 01:11:00,
2013-03-02 20:21:00,43.0,40.0,30.06,NW,312,2.0,7.0,89,-99.99,,,-99.99,,2013-03-03 01:21:00,
2013-03-02 20:31:00,43.0,40.0,30.08,SSE,147,1.0,7.0,89,-99.99,,,-99.99,,2013-03-03 01:31:00,
2013-03-02 20:41:00,43.0,40.0,30.08,SSE,147,1.0,7.0,89,-99.99,,,-99.99,,2013-03-03 01:41:00,
2013-03-02 20:52:00,43.0,40.0,30.09,NW,326,0.0,6.0,88,-99.99,,,-99.99,,2013-03-03 01:52:00,
2013-03-02 21:01:00,43.0,40.0,30.09,NW,309,2.0,5.0,89,-99.99,,,-99.99,,2013-03-03 02:01:00,
2013-03-02 21:11:00,42.0,39.0,30.09,NE,48,2.0,5.0,90,-99.99,,,-99.99,,2013-03-03 02:11:00,
2013-03-02 21:21:00,42.0,39.0,30.09,NE,48,2.0,5.0,90,-99.99,,,-99.99,,2013-03-03 02:21:00,
2013-03-02 21:31:00,42.0,40.0,30.10,NE,44,2.0,5.0,91,-99.99,,,-99.99,,2013-03-03 02:31:00,
2013-03-02 21:41:00,42.0,40.0,30.10,NE,44,2.0,5.0,91,-99.99,,,-99.99,,2013-03-03 02:41:00,
2013-03-02 21:52:00,42.0,40.0,30.10,NE,37,0.0,4.0,91,-99.99,,,-99.99,,2013-03-03 02:52:00,
2013-03-02 22:01:00,42.0,40.0,30.11,ESE,107,0.0,4.0,92,-99.99,,,-99.99,,2013-03-03 03:01:00,
2013-03-02 22:11:00,42.0,40.0,30.11,ESE,107,0.0,4.0,92,-99.99,,,-99.99,,2013-03-03 03:11:00,
2013-03-02 22:21:00,42.0,40.0,30.13,East,98,2.0,3.0,92,-99.99,,,-99.99,,2013-03-03 03:21:00,
2013-03-02 22:31:00,42.0,40.0,30.13,East,95,2.0,6.0,92,-99.99,,,-99.99,,2013-03-03 03:31:00,
2013-03-02 22:41:00,42.0,40.0,30.13,East,95,2.0,6.0,92,-99.99,,,-99.99,,2013-03-03 03:41:00,
2013-03-02 22:52:00,42.0,40.0,30.13,ENE,68,2.0,5.0,93,-99.99,,,-99.99,,2013-03-03 03:52:00,
2013-03-02 23:01:00,41.0,39.0,30.14,ENE,74,2.0,9.0,93,-99.99,,,-99.99,,2013-03-03 04:01:00,
2013-03-02 23:11:00,41.0,39.0,30.14,ENE,74,2.0,9.0,93,-99.99,,,-99.99,,2013-03-03 04:11:00,
2013-03-02 23:21:00,41.0,39.0,30.14,East,93,1.0,4.0,93,-99.99,,,-99.99,,2013-03-03 04:21:00,
2013-03-02 23:31:00,41.0,39.0,30.14,NE,36,1.0,5.0,93,-99.99,,,-99.99,,2013-03-03 04:31:00,
2013-03-02 23:41:00,41.0,39.0,30.14,NE,36,1.0,5.0,93,-99.99,,,-99.99,,2013-03-03 04:41:00,
2013-03-02 23:51:00,41.0,39.0,30.14,ESE,121,2.0,6.0,93,-99.99,,,-99.99,,2013-03-03 04:51:00,